1498132800.94,6332,21.38,74312.8,23.55,-16.89,-16.31,0,*7B
1498132802.16,6333,21.38,74314.5,23.57,-15.63,-15.01,0,*7F
1498132803.38,6334,21.38,74314.5,23.61,-15.29,-14.79,0,*7D
1498132804.57,6335,21.38,74316.0,23.65,-15.07,-14.61,0,*7D
1498132805.76,6336,21.38,74314.5,23.65,-16.97,-16.89,0,*70
1498132806.95,6337,21.38,74312.8,23.65,-18.25,-18.17,0,*7F
1498132808.17,6338,21.38,74316.0,23.63,-17.83,-17.83,0,*77
1498132809.39,6339,21.38,74312.3,23.65,-17.11,-16.93,0,*7B
1498132810.63,6340,21.38,74316.3,23.65,-17.55,-17.55,0,*7E
1498132811.88,6341,21.38,74312.5,23.67,-19.37,-19.61,0,*7E
1498132813.11,6342,21.38,74312.3,23.63,-20.93,-20.89,0,*71
1498132814.3,6343,21.38,74312.5,23.61,-21.13,-21.47,0,*78
1498132815.55,6344,21.38,74314.0,23.57,-22.17,-22.77,0,*7D
1498132816.76,6345,21.38,74310.5,23.53,-22.53,-23.13,0,*7B
1498132817.96,6346,21.38,74310.0,23.47,-22.57,-22.97,0,*74
1498132819.21,6347,21.38,74312.0,23.45,-21.53,-22.03,0,*7D
1498132820.43,6348,21.38,74310.0,23.43,-20.99,-21.73,0,*77
1498132821.63,6349,21.38,74310.3,23.39,-21.17,-21.93,0,*72
1498132822.88,6350,21.38,74310.3,23.37,-21.17,-21.83,0,*75
1498132824.13,6351,21.38,74312.8,23.37,-20.79,-21.39,0,*7C
1498132825.38,6352,21.38,74308.8,23.33,-20.49,-21.13,0,*70
1498132826.6,6353,21.38,74308.3,23.31,-20.49,-21.13,0,*73
1498132827.8,6354,21.38,74310.3,23.27,-20.69,-21.47,0,*70
1498132829.06,6355,21.38,74306.8,23.27,-19.61,-20.53,0,*77
1498132830.28,6356,21.38,74308.3,23.27,-20.09,-21.03,0,*74
1498132831.54,6357,21.38,74304.3,23.25,-19.81,-20.79,0,*71
1498132832.77,6358,21.38,74306.0,23.25,-18.65,-19.37,0,*75
1498132833.99,6359,21.38,74306.5,23.25,-18.65,-19.37,0,*74
1498132835.22,6360,21.38,74304.8,23.27,-16.79,-17.79,0,*7B
1498132836.41,6361,21.38,74304.5,23.27,-17.69,-18.69,0,*74
1498132837.64,6362,21.38,74306.5,23.29,-16.75,-17.49,0,*78
1498132838.89,6363,21.38,74306.5,23.29,-17.69,-18.55,0,*77
1498132840.14,6364,21.38,74304.5,23.29,-17.79,-18.69,0,*7E
1498132841.41,6365,21.38,74306.8,23.29,-17.93,-18.89,0,*75
1498132842.63,6366,21.38,74308.5,23.29,-18.11,-19.03,0,*70
1498132843.86,6367,21.38,74304.3,23.31,-19.07,-20.35,0,*71
1498132845.11,6368,21.38,74310.0,23.29,-20.19,-21.47,0,*76
1498132846.33,6369,21.38,74314.3,23.27,-20.09,-21.27,0,*7E
1498132847.55,6370,21.38,74312.8,23.25,-19.03,-20.09,0,*79
1498132848.75,6371,21.38,74312.0,23.27,-18.11,-19.13,0,*79
1498132850.01,6372,21.38,74312.3,23.25,-19.99,-21.23,0,*71
1498132851.23,6373,21.38,74310.0,23.23,-20.19,-21.39,0,*7F
1498132852.45,6374,21.38,74308.0,23.21,-17.83,-18.83,0,*76
1498132853.68,6375,21.38,74312.0,23.23,-18.21,-19.41,0,*7D
1498132854.92,6376,21.38,74314.5,23.21,-20.19,-21.43,0,*75
1498132856.12,6377,21.38,74314.8,23.19,-20.73,-21.77,0,*74
1498132857.32,6378,21.38,74314.3,23.19,-20.39,-21.43,0,*72
1498132858.55,6379,21.38,74314.8,23.19,-20.53,-21.43,0,*7F
1498132859.79,6380,21.38,74312.0,23.15,-19.85,-20.93,0,*78
1498132861.01,6381,21.38,74314.5,23.15,-20.73,-21.77,0,*71
1498132862.23,6382,21.38,74312.5,23.09,-21.13,-22.21,0,*78
1498132863.45,6383,21.38,74314.5,23.07,-22.03,-23.13,0,*75
1498132864.67,6384,21.38,74316.3,23.05,-21.87,-22.67,0,*7D
1498132865.93,6385,21.38,74312.5,23.05,-20.19,-21.23,0,*79
1498132867.12,6386,21.38,74314.0,23.01,-23.09,-24.05,0,*7D
1498132868.35,6387,21.38,74310.8,22.97,-23.65,-24.57,0,*7F
1498132869.59,6388,21.38,74312.8,22.95,-21.67,-22.37,0,*72
1498132870.83,6389,21.38,74312.5,22.95,-18.35,-19.03,0,*71
1498132872.05,6390,21.38,74312.3,22.95,-17.83,-18.45,0,*78
1498132873.29,6391,21.38,74312.5,22.95,-18.79,-19.41,0,*76
1498132874.54,6392,21.38,74314.0,22.95,-20.63,-21.67,0,*7A
1498132875.77,6393,21.38,74312.5,22.93,-24.47,-25.45,0,*7B
1498132876.98,6394,21.38,74314.5,22.85,-23.43,-24.61,0,*7F
1498132878.21,6395,21.38,74312.8,22.83,-24.25,-25.09,0,*70
1498132879.41,6396,21.38,74308.5,22.79,-24.61,-25.61,0,*78
1498132880.61,6397,21.38,74310.0,22.75,-25.09,-25.91,0,*75
1498132881.86,6398,21.38,74310.3,22.71,-24.87,-25.71,0,*77
1498132883.14,6399,21.38,74312.5,22.65,-24.83,-25.75,0,*73
1498132884.39,6400,21.38,74312.8,22.61,-26.65,-27.45,0,*7B
1498132885.62,6401,21.38,74308.5,22.57,-25.19,-26.07,0,*70
1498132886.86,6402,21.38,74312.8,22.53,-24.67,-25.35,0,*7D
1498132888.09,6403,21.38,74312.0,22.49,-24.51,-25.35,0,*72
1498132889.33,6404,21.38,74312.5,22.47,-22.53,-23.19,0,*77
1498132890.55,6405,21.38,74312.0,22.43,-23.85,-24.61,0,*70
1498132891.77,6406,21.38,74312.3,22.39,-23.85,-24.51,0,*7D
1498132893.03,6407,21.38,74314.3,22.39,-24.71,-25.03,0,*76
1498132894.22,6408,21.38,74312.8,22.35,-22.83,-23.39,0,*71
1498132895.45,6409,21.38,74304.5,22.35,-23.99,-24.77,0,*77
1498132896.69,6410,21.38,74310.3,22.31,-23.69,-24.25,0,*73
1498132897.92,6411,21.38,74308.5,22.27,-26.97,-27.77,0,*75
1498132899.17,6412,21.38,74314.3,22.21,-28.85,-29.39,0,*79
1498132900.44,6413,21.38,74314.3,22.15,-25.75,-26.29,0,*73
1498132901.66,6414,21.38,74310.3,22.13,-24.83,-25.35,0,*74
1498132902.87,6415,21.38,74310.0,22.09,-25.09,-25.49,0,*76
1498132904.11,6416,21.38,74312.3,22.07,-25.75,-26.23,0,*7F
1498132905.3,6417,21.38,74308.3,22.05,-25.35,-25.87,0,*75
1498132906.53,6418,21.38,74310.3,21.99,-25.65,-26.07,0,*72
1498132907.75,6419,21.38,74310.3,21.97,-22.73,-22.87,0,*71
1498132909.02,6420,21.38,74304.3,21.95,-23.23,-23.49,0,*7E
1498132910.25,6421,21.38,74306.3,21.95,-20.73,-20.73,0,*73
1498132911.44,6422,21.38,74302.8,21.97,-21.13,-21.39,0,*7A
1498132912.67,6423,21.38,74308.8,21.95,-23.75,-23.75,0,*71
1498132913.92,6424,21.38,74304.3,21.97,-22.21,-22.21,0,*74
1498132915.15,6425,21.38,74306.5,21.97,-21.53,-21.39,0,*79
1498132916.39,6426,21.38,74306.0,21.97,-20.83,-20.83,0,*76
1498132917.6,6427,21.38,74306.5,21.97,-20.29,-20.35,0,*7A
1498132918.82,6428,21.38,74304.3,21.97,-20.19,-20.05,0,*75
1498132920.07,6429,21.38,74300.5,21.99,-21.67,-21.47,0,*75
1498132921.32,6430,21.38,74304.5,21.99,-23.65,-23.79,0,*72
1498132922.55,6431,21.38,74304.0,21.95,-22.57,-22.57,0,*72
1498132923.81,6432,21.38,74302.5,21.95,-22.77,-22.93,0,*7B
1498132925.06,6433,21.38,74300.8,21.95,-21.97,-22.07,0,*7A
1498132926.27,6434,21.38,74302.3,21.93,-22.53,-22.57,0,*75
1498132927.46,6435,21.38,74302.8,21.93,-21.63,-21.63,0,*70
1498132928.69,6436,21.38,74298.5,21.93,-21.03,-20.69,0,*7E
1498132929.91,6437,21.44,74306.3,21.93,-21.97,-21.93,0,*76
1498132931.11,6438,21.38,74306.0,21.93,-22.53,-22.37,0,*7F
1498132932.36,6439,21.38,74300.0,21.95,-21.43,-21.03,0,*7E
1498132933.64,6440,21.38,74300.0,21.91,-21.83,-21.53,0,*7D
1498132934.86,6441,21.38,74300.5,21.91,-20.73,-20.43,0,*72
1498132936.11,6442,21.38,74298.8,21.91,-20.09,-19.81,0,*78
1498132937.36,6443,21.38,74296.5,21.91,-21.03,-20.73,0,*75
1498132938.62,6444,21.38,74302.5,21.95,-21.27,-20.73,0,*70
1498132939.83,6445,21.38,74298.8,21.93,-20.63,-20.39,0,*78
1498132941.08,6446,21.38,74298.5,21.93,-23.03,-22.77,0,*76
1498132942.34,6447,21.38,74296.5,21.91,-23.69,-23.29,0,*73
1498132943.57,6448,21.38,74298.0,21.89,-22.87,-22.47,0,*7D
1498132944.82,6449,21.38,74298.8,21.89,-21.57,-21.27,0,*77
1498132946.04,6450,21.38,74294.5,21.89,-20.19,-19.71,0,*7C
1498132947.27,6451,21.38,74298.5,21.89,-19.57,-19.37,0,*7F
1498132948.49,6452,21.38,74296.8,21.89,-20.49,-20.29,0,*7C
1498132949.75,6453,21.38,74302.3,21.91,-20.53,-20.25,0,*73
1498132951.0,6454,21.38,74300.0,21.91,-21.67,-21.47,0,*77
1498132952.23,6455,21.38,74298.3,21.91,-20.73,-20.39,0,*7A
1498132953.46,6456,21.38,74300.0,21.91,-21.09,-20.69,0,*70
1498132954.69,6457,21.38,74298.3,21.91,-20.39,-19.95,0,*7A
1498132955.89,6458,21.38,74300.3,21.93,-20.73,-20.39,0,*75
1498132957.14,6459,21.38,74300.8,21.91,-20.53,-20.09,0,*77
1498132958.39,6460,21.38,74296.8,21.95,-20.05,-19.57,0,*7B
1498132959.62,6461,21.38,74298.8,21.93,-19.75,-19.27,0,*76
1498132960.81,6462,21.38,74302.0,21.93,-18.83,-18.41,0,*7C
1498132962.04,6463,21.38,74300.5,21.99,-19.51,-19.17,0,*7B
1498132963.32,6464,21.38,74300.0,21.95,-19.57,-19.23,0,*71
1498132964.53,6465,21.38,74298.0,21.97,-19.41,-19.07,0,*73
1498132965.76,6466,21.38,74300.0,21.99,-19.37,-19.03,0,*7B
1498132967.03,6467,21.44,74302.0,21.99,-19.31,-18.89,0,*7F
1498132968.23,6468,21.38,74300.3,22.05,-18.69,-18.11,0,*7B
1498132969.43,6469,21.38,74300.3,22.05,-18.41,-17.83,0,*74
1498132970.68,6470,21.38,74300.8,22.05,-17.79,-17.07,0,*74
1498132971.89,6471,21.38,74302.5,22.09,-18.17,-17.83,0,*72
1498132973.11,6472,21.38,74304.0,22.11,-18.11,-17.49,0,*78
1498132974.34,6473,21.38,74304.8,22.11,-18.17,-17.35,0,*74
1498132975.59,6474,21.38,74304.0,22.15,-16.69,-15.95,0,*78
1498132976.82,6475,21.38,74302.8,22.19,-16.41,-15.63,0,*76
1498132978.04,6476,21.38,74302.5,22.21,-16.45,-15.71,0,*79
1498132979.29,6477,21.38,74302.0,22.25,-17.03,-16.41,0,*7F
1498132980.51,6478,21.38,74302.0,22.27,-17.63,-16.89,0,*70
1498132981.72,6479,21.38,74304.3,22.31,-17.35,-16.59,0,*78
1498132982.99,6480,21.38,74304.0,22.29,-17.41,-16.65,0,*7B
1498132984.24,6481,21.38,74300.8,22.33,-17.69,-17.21,0,*7A
1498132985.46,6482,21.38,74304.8,22.33,-19.03,-18.45,0,*76
1498132986.69,6483,21.38,74304.0,22.35,-20.35,-19.85,0,*73
1498132987.95,6484,21.38,74304.0,22.33,-21.17,-20.53,0,*72
1498132989.16,6485,21.38,74304.8,22.31,-20.15,-19.47,0,*7D
1498132990.38,6486,21.38,74308.0,22.31,-19.03,-18.55,0,*71
1498132991.6,6487,21.44,74308.3,22.31,-19.51,-18.89,0,*76
1498132992.84,6488,21.38,74306.5,22.33,-17.55,-16.93,0,*74
1498132994.09,6489,21.38,74304.3,22.33,-17.55,-16.89,0,*7E
1498132995.31,6490,21.38,74306.0,22.35,-18.21,-17.63,0,*79
1498132996.53,6491,21.38,74306.5,22.35,-16.97,-16.17,0,*79
1498132997.78,6492,21.38,74306.0,22.37,-16.37,-15.81,0,*7E
1498132999.01,6493,21.38,74304.8,22.41,-16.37,-15.75,0,*75
1498133000.24,6494,21.44,74310.0,22.47,-16.79,-16.13,0,*7D
1498133001.44,6495,21.38,74306.3,22.47,-16.37,-15.63,0,*72
1498133002.67,6496,21.38,74304.8,22.51,-16.51,-15.75,0,*71
1498133003.89,6497,21.38,74306.3,22.53,-16.83,-16.03,0,*7F
1498133005.13,6498,21.38,74300.8,22.55,-16.13,-15.49,0,*72
1498133006.33,6499,21.38,74304.3,22.59,-16.45,-15.71,0,*77
1498133007.57,6500,21.38,74306.3,22.59,-17.11,-16.23,0,*72
1498133008.83,6501,21.38,74304.3,22.59,-16.65,-15.81,0,*7A
1498133010.05,6502,21.38,74304.8,22.59,-16.79,-15.89,0,*7C
1498133011.3,6503,21.38,74306.5,22.63,-15.85,-14.97,0,*7A
1498133012.53,6504,21.38,74300.8,22.65,-16.37,-15.53,0,*78
1498133013.73,6505,21.38,74302.3,22.67,-16.93,-16.03,0,*73
1498133014.96,6506,21.38,74300.5,22.71,-16.55,-15.85,0,*70
1498133016.24,6507,21.38,74300.5,22.73,-16.27,-15.43,0,*7C
1498133017.49,6508,21.38,74300.5,22.77,-16.31,-15.49,0,*7A
1498133018.74,6509,21.44,74302.3,22.75,-16.23,-15.35,0,*71
1498133020.01,6510,21.38,74300.3,22.77,-16.17,-15.21,0,*79
1498133021.26,6511,21.38,74300.5,22.81,-15.63,-14.83,0,*78
1498133022.5,6512,21.38,74302.5,22.81,-15.49,-14.75,0,*7A
1498133023.73,6513,21.38,74302.0,22.87,-16.41,-15.67,0,*74
1498133024.96,6514,21.38,74300.8,22.87,-15.95,-15.07,0,*7F
1498133026.18,6515,21.38,74300.5,22.89,-15.85,-15.11,0,*76
1498133027.44,6516,21.38,74300.5,22.89,-15.85,-14.97,0,*7A
1498133028.66,6517,21.38,74298.3,22.95,-15.15,-14.29,0,*7A
1498133029.88,6518,21.38,74300.5,22.95,-15.15,-14.33,0,*7E
1498133031.15,6519,21.38,74302.0,22.99,-16.51,-15.85,0,*7C
1498133032.38,6520,21.38,74298.8,23.01,-16.69,-15.95,0,*7C
1498133033.6,6521,21.44,74300.3,23.01,-16.69,-15.71,0,*77
1498133034.82,6522,21.38,74298.3,23.01,-15.67,-14.79,0,*70
1498133036.09,6523,21.44,74302.3,23.03,-15.81,-14.93,0,*7F
1498133037.31,6524,21.44,74300.5,23.05,-15.63,-14.75,0,*7A
1498133038.53,6525,21.38,74298.8,23.09,-15.71,-14.93,0,*7C
1498133039.77,6526,21.38,74298.0,23.11,-16.03,-15.01,0,*7A
1498133041.04,6527,21.38,74298.0,23.11,-17.07,-16.31,0,*7E
1498133042.32,6528,21.38,74296.0,23.15,-18.31,-17.55,0,*7C
1498133043.55,6529,21.38,74298.5,23.15,-17.79,-16.89,0,*7E
1498133044.8,6530,21.38,74298.8,23.15,-18.65,-17.79,0,*7A
1498133046.03,6531,21.38,74302.0,23.09,-19.13,-18.35,0,*71
1498133047.25,6532,21.44,74302.8,23.09,-18.89,-18.21,0,*75
1498133048.49,6533,21.38,74296.3,23.09,-19.41,-18.55,0,*72
1498133049.71,6534,21.44,74300.3,23.09,-17.93,-16.93,0,*70
1498133050.96,6535,21.38,74302.3,23.09,-17.79,-17.03,0,*7D
1498133052.17,6536,21.38,74300.8,23.05,-20.05,-19.23,0,*71
1498133053.42,6537,21.38,74298.5,23.07,-20.43,-19.61,0,*76
1498133054.65,6538,21.38,74300.0,23.05,-20.43,-19.65,0,*7F
1498133055.85,6539,21.38,74296.3,23.01,-19.99,-19.13,0,*76
1498133057.07,6540,21.44,74302.0,23.01,-18.25,-17.45,0,*73
1498133058.35,6541,21.38,74300.5,22.99,-17.07,-15.89,0,*7F
1498133059.57,6542,21.38,74302.5,23.01,-15.95,-14.83,0,*7E
1498133060.77,6543,21.38,74300.5,23.05,-15.95,-15.07,0,*76
1498133062.01,6544,21.38,74302.3,23.07,-16.89,-15.89,0,*7B
1498133063.26,6545,21.44,74306.0,23.07,-18.25,-17.41,0,*74
1498133064.54,6546,21.44,74300.3,23.07,-18.31,-17.41,0,*72
1498133065.79,6547,21.44,74300.0,23.05,-18.35,-17.55,0,*70
1498133067.04,6548,21.38,74302.0,23.05,-18.01,-17.17,0,*7E
1498133068.26,6549,21.38,74300.8,23.07,-17.49,-16.79,0,*77
1498133069.51,6550,21.44,74300.0,23.07,-17.11,-16.03,0,*7F
1498133070.75,6551,21.38,74300.8,23.09,-16.31,-15.39,0,*79
1498133071.99,6552,21.38,74298.8,23.11,-16.41,-15.29,0,*75
1498133073.25,6553,21.38,74300.5,23.11,-15.57,-14.51,0,*7E
1498133074.48,6554,21.38,74300.3,23.15,-15.63,-14.65,0,*7D
1498133075.76,6555,21.38,74300.8,23.17,-18.01,-17.07,0,*70
1498133076.99,6556,21.44,74306.3,23.17,-18.73,-17.83,0,*7A
1498133078.24,6557,21.38,74302.8,23.19,-18.55,-17.45,0,*7B
1498133079.49,6558,21.44,74300.0,23.17,-18.25,-17.21,0,*7F
1498133080.74,6559,21.44,74300.0,23.17,-17.63,-16.59,0,*7D
1498133081.94,6560,21.44,74300.5,23.19,-15.71,-14.69,0,*79
1498133083.18,6561,21.44,74302.0,23.19,-15.01,-13.83,0,*7C
1498133084.44,6562,21.38,74300.3,23.21,-15.29,-13.97,0,*7B
1498133085.67,6563,21.38,74300.0,23.25,-14.75,-13.47,0,*7B
1498133086.9,6564,21.38,74302.8,23.25,-16.37,-15.15,0,*79
1498133088.13,6565,21.44,74304.0,23.29,-17.35,-15.99,0,*73
1498133089.37,6566,21.44,74300.3,23.31,-16.09,-14.65,0,*75
1498133090.6,6567,21.44,74302.3,23.31,-16.75,-15.39,0,*77
1498133091.83,6568,21.44,74300.5,23.31,-16.13,-14.69,0,*7C
1498133093.09,6569,21.38,74302.5,23.31,-16.09,-14.83,0,*72
1498133094.34,6570,21.44,74302.3,23.33,-16.75,-15.35,0,*7F
1498133095.59,6571,21.38,74300.5,23.33,-16.37,-14.83,0,*74
1498133096.83,6572,21.44,74302.3,23.39,-15.57,-13.87,0,*7B
1498133098.03,6573,21.44,74302.0,23.39,-15.15,-13.43,0,*74
1498133099.25,6574,21.38,74300.3,23.41,-16.75,-15.11,0,*78
1498133100.45,6575,21.44,74300.0,23.43,-16.97,-15.25,0,*70
1498133101.68,6576,21.38,74300.8,23.43,-17.59,-15.95,0,*7B
1498133102.87,6577,21.38,74298.8,23.43,-17.49,-15.67,0,*76
1498133104.12,6578,21.44,74304.3,23.45,-17.69,-15.81,0,*75
1498133105.34,6579,21.38,74302.0,23.43,-16.27,-14.37,0,*75
1498133106.56,6580,21.44,74300.5,23.43,-17.03,-15.11,0,*71
1498133107.78,6581,21.38,74302.3,23.45,-16.37,-14.33,0,*71
1498133108.99,6582,21.38,74296.0,23.47,-15.85,-13.69,0,*72
1498133110.23,6583,21.44,74300.3,23.51,-15.95,-13.79,0,*74
1498133111.46,6584,21.38,74302.0,23.49,-16.83,-14.51,0,*73
1498133112.7,6585,21.44,74302.8,23.51,-16.69,-14.33,0,*7B
1498133113.95,6586,21.38,74300.3,23.51,-16.97,-14.55,0,*79
1498133115.18,6587,21.44,74302.3,23.53,-17.55,-15.07,0,*73
1498133116.43,6588,21.44,74302.3,23.51,-18.69,-16.23,0,*7B
1498133117.7,6589,21.38,74300.0,23.51,-17.21,-14.55,0,*7A
1498133118.92,6590,21.38,74300.8,23.51,-17.31,-14.69,0,*7C
1498133120.14,6591,21.44,74302.3,23.51,-17.73,-15.07,0,*72
1498133121.41,6592,21.44,74304.3,23.51,-17.79,-14.93,0,*77
1498133122.65,6593,21.44,74302.8,23.51,-17.59,-14.69,0,*71
1498133123.88,6594,21.44,74304.3,23.53,-18.73,-15.81,0,*74
1498133125.13,6595,21.44,74300.5,23.51,-19.17,-16.27,0,*7B
1498133126.36,6596,21.44,74300.0,23.51,-19.47,-16.41,0,*7D
1498133127.59,6597,21.38,74300.0,23.49,-18.49,-15.39,0,*76
1498133128.84,6598,21.44,74302.0,23.49,-18.01,-14.97,0,*70
1498133130.06,6599,21.44,74304.8,23.49,-16.23,-12.97,0,*79
1498133131.3,6600,21.44,74306.5,23.51,-15.95,-12.65,0,*70
1498133132.55,6601,21.44,74300.5,23.51,-16.27,-13.19,0,*71
1498133133.78,6602,21.38,74302.8,23.53,-17.45,-14.33,0,*7A
1498133135.0,6603,21.44,74304.0,23.53,-17.07,-13.73,0,*7E
1498133136.26,6604,21.44,74300.0,23.53,-16.09,-12.79,0,*7D
1498133137.5,6605,21.44,74302.8,23.55,-15.99,-12.75,0,*7C
1498133138.69,6606,21.38,74302.8,23.57,-16.79,-13.47,0,*70
1498133139.93,6607,21.44,74304.0,23.57,-16.31,-13.01,0,*7F
1498133141.13,6608,21.44,74302.8,23.61,-15.53,-12.21,0,*71
1498133142.37,6609,21.44,74304.3,23.57,-14.55,-11.29,0,*79
1498133143.59,6610,21.38,74302.3,23.63,-14.61,-11.19,0,*72
1498133144.85,6611,21.44,74304.5,23.63,-15.01,-11.81,0,*75
1498133146.08,6612,21.44,74304.0,23.65,-14.75,-11.33,0,*7B
1498133147.36,6613,21.44,74306.3,23.67,-14.83,-11.63,0,*74
1498133148.58,6614,21.44,74304.5,23.67,-15.29,-12.03,0,*77
1498133149.84,6615,21.44,74302.0,23.69,-15.81,-12.71,0,*7F
1498133151.05,6616,21.44,74302.8,23.69,-15.99,-12.83,0,*78
1498133152.3,6617,21.44,74304.0,23.69,-14.43,-11.37,0,*73
1498133153.55,6618,21.44,74302.3,23.71,-13.73,-10.79,0,*7A
1498133154.81,6619,21.44,74302.8,23.73,-13.83,-11.07,0,*7E
1498133156.03,6620,21.44,74302.5,23.75,-15.29,-12.47,0,*73
1498133157.3,6621,21.44,74302.8,23.75,-15.57,-12.71,0,*7E
1498133158.52,6622,21.38,74302.3,23.75,-15.63,-13.11,0,*7D
1498133159.79,6623,21.44,74304.0,23.75,-14.05,-11.29,0,*74
1498133161.05,6624,21.44,74302.8,23.75,-13.19,-10.67,0,*72
1498133162.29,6625,21.44,74304.5,23.77,-11.81,-9.37,0,*4F
1498133163.48,6626,21.44,74304.5,23.83,-12.43,-10.09,0,*7F
1498133164.7,6627,21.44,74304.0,23.83,-11.89,-9.79,0,*44
1498133165.91,6628,21.44,74306.0,23.87,-12.29,-10.35,0,*76
1498133167.2,6629,21.44,74306.3,23.89,-12.11,-10.41,0,*71
1498133168.43,6630,21.44,74306.3,23.91,-11.67,-10.15,0,*73
1498133169.69,6631,21.44,74304.8,23.93,-11.93,-10.27,0,*7A
1498133170.94,6632,21.44,74304.0,23.95,-11.97,-10.63,0,*7B
1498133172.19,6633,21.44,74302.5,23.95,-12.57,-11.55,0,*71
1498133173.48,6634,21.44,74302.3,23.97,-11.55,-10.67,0,*75
1498133174.73,6635,21.44,74302.0,23.99,-11.77,-10.79,0,*75
1498133175.95,6636,21.38,74302.3,24.01,-11.11,-10.23,0,*7F
1498133177.18,6637,21.44,74302.5,24.05,-11.19,-10.57,0,*71
1498133178.39,6638,21.44,74306.5,24.07,-10.15,-9.57,0,*49
1498133179.6,6639,21.44,74304.0,24.09,-9.97,-9.71,0,*70
1498133180.85,6640,21.44,74304.0,24.11,-10.79,-10.63,0,*74
1498133182.05,6641,21.44,74304.5,24.11,-11.01,-10.93,0,*74
1498133183.26,6642,21.44,74304.5,24.13,-11.01,-11.15,0,*7A
1498133184.49,6643,21.44,74304.3,24.15,-11.01,-11.41,0,*7C
1498133185.71,6644,21.44,74302.8,24.17,-11.41,-11.85,0,*75
1498133186.94,6645,21.44,74304.8,24.17,-10.97,-11.67,0,*72
1498133188.22,6646,21.44,74304.5,24.19,-10.67,-11.37,0,*75
1498133189.42,6647,21.44,74304.5,24.21,-10.49,-11.45,0,*76
1498133190.62,6648,21.44,74302.8,24.21,-10.35,-11.41,0,*76
1498133191.88,6649,21.44,74306.3,24.25,-10.63,-11.63,0,*70
1498133193.08,6650,21.44,74306.5,24.25,-10.19,-11.41,0,*75
1498133194.28,6651,21.44,74306.0,24.25,-11.45,-12.97,0,*74
1498133195.5,6652,21.44,74306.0,24.29,-11.23,-12.61,0,*72
1498133196.75,6653,21.44,74304.8,24.31,-11.07,-12.97,0,*75
1498133198.03,6654,21.44,74308.5,24.31,-10.67,-12.35,0,*7D
1498133199.3,6655,21.44,74304.5,24.35,-10.41,-12.07,0,*7D
1498133200.55,6656,21.44,74308.3,24.35,-10.41,-12.21,0,*7A
1498133201.74,6657,21.44,74308.3,24.37,-10.27,-12.25,0,*7D
1498133203.02,6658,21.44,74308.0,24.39,-10.63,-12.71,0,*7D
1498133204.24,6659,21.44,74300.8,24.41,-10.79,-12.97,0,*70
1498133205.5,6660,21.44,74302.8,24.43,-11.59,-13.83,0,*7F
1498133206.72,6661,21.44,74308.8,24.43,-11.45,-13.69,0,*77
1498133207.96,6662,21.44,74304.3,24.43,-10.27,-12.57,0,*7D
1498133209.19,6663,21.44,74306.5,24.47,-10.67,-13.11,0,*7F
1498133210.39,6664,21.44,74300.5,24.51,-11.15,-13.65,0,*78
1498133211.63,6665,21.44,74306.3,24.53,-10.23,-12.65,0,*7E
1498133212.89,6666,21.44,74304.8,24.57,-10.19,-12.75,0,*71
1498133214.11,6667,21.44,74306.5,24.57,-10.57,-13.07,0,*7E
1498133215.35,6668,21.44,74300.3,24.61,-10.89,-13.37,0,*74
1498133216.62,6669,21.44,74304.0,24.61,-11.55,-13.87,0,*7E
1498133217.9,6670,21.44,74304.5,24.65,-11.85,-14.47,0,*74
1498133219.15,6671,21.44,74306.8,24.63,-12.53,-14.97,0,*76
1498133220.38,6672,21.44,74304.3,24.63,-12.65,-15.11,0,*7F
1498133221.62,6673,21.44,74306.3,24.65,-13.65,-16.23,0,*7B
1498133222.85,6674,21.44,74304.0,24.65,-12.97,-15.25,0,*75
1498133224.08,6675,21.44,74304.0,24.65,-13.65,-15.95,0,*73
1498133225.32,6676,21.44,74304.5,24.65,-12.83,-15.11,0,*75
1498133226.53,6677,21.44,74302.5,24.63,-14.11,-16.41,0,*79
1498133227.78,6678,21.44,74302.8,24.63,-13.97,-16.09,0,*73
1498133229.02,6679,21.44,74302.5,24.65,-15.11,-17.25,0,*73
1498133230.24,6680,21.44,74302.8,24.65,-14.33,-16.45,0,*73
1498133231.44,6681,21.44,74302.8,24.63,-14.37,-16.37,0,*75
1498133232.64,6682,21.44,74306.0,24.63,-14.11,-15.99,0,*75
1498133233.89,6683,21.44,74304.0,24.65,-14.05,-15.99,0,*77
1498133235.12,6684,21.44,74304.5,24.63,-13.97,-15.99,0,*7A
1498133236.36,6685,21.44,74306.3,24.65,-15.99,-17.93,0,*7D
1498133237.61,6686,21.44,74304.3,24.61,-16.75,-18.55,0,*7E
1498133238.84,6687,21.44,74300.5,24.59,-17.11,-18.89,0,*76
1498133240.12,6688,21.44,74302.0,24.57,-15.57,-17.11,0,*79
1498133241.36,6689,21.44,74300.8,24.57,-14.79,-16.37,0,*70
1498133242.6,6690,21.44,74302.3,24.57,-14.19,-15.53,0,*7F
1498133243.85,6691,21.44,74302.3,24.61,-13.01,-14.37,0,*76
1498133245.11,6692,21.44,74306.5,24.61,-13.97,-15.11,0,*7F
1498133246.36,6693,21.44,74302.8,24.61,-12.75,-14.11,0,*72
1498133247.58,6694,21.44,74302.3,24.63,-12.97,-14.05,0,*7E
1498133248.8,6695,21.44,74302.8,24.65,-12.93,-14.11,0,*78
1498133250.05,6696,21.44,74300.8,24.69,-13.51,-14.83,0,*73
1498133251.26,6697,21.44,74302.0,24.69,-15.11,-16.37,0,*7D
1498133252.54,6698,21.44,74302.3,24.69,-14.47,-15.43,0,*70
1498133253.79,6699,21.44,74300.5,24.69,-13.51,-14.43,0,*70
1498133255.0,6700,21.44,74302.0,24.73,-13.11,-14.11,0,*79
1498133256.19,6701,21.44,74300.8,24.75,-13.93,-15.11,0,*75
1498133257.41,6702,21.44,74300.8,24.75,-13.69,-14.83,0,*79
1498133258.68,6703,21.44,74298.8,24.77,-14.47,-15.39,0,*71
1498133259.91,6704,21.44,74302.8,24.79,-14.29,-15.15,0,*7E
1498133261.18,6705,21.44,74296.8,24.79,-14.43,-15.43,0,*70
1498133262.41,6706,21.44,74302.0,24.81,-16.45,-17.25,0,*72
1498133263.66,6707,21.44,74296.8,24.77,-15.85,-16.51,0,*77
1498133264.91,6708,21.44,74298.5,24.79,-14.47,-15.15,0,*7A
1498133266.16,6709,21.44,74302.3,24.79,-14.01,-14.69,0,*73
1498133267.39,6710,21.44,74300.3,24.81,-14.43,-15.11,0,*74
1498133268.64,6711,21.44,74300.3,24.83,-14.55,-15.11,0,*70
1498133269.92,6712,21.44,74298.3,24.83,-14.05,-14.55,0,*77
1498133271.15,6713,21.44,74298.5,24.85,-14.51,-15.07,0,*77
1498133272.42,6714,21.44,74300.0,24.87,-14.75,-15.57,0,*71
1498133273.66,6715,21.44,74300.5,24.87,-15.21,-15.63,0,*77
1498133274.86,6716,21.44,74298.0,24.85,-15.53,-15.67,0,*77
1498133276.1,6717,21.44,74300.3,24.85,-14.79,-14.93,0,*75
1498133277.35,6718,21.44,74300.0,24.89,-14.75,-14.83,0,*7B
1498133278.57,6719,21.44,74300.3,24.91,-14.15,-14.11,0,*7E
1498133279.78,6720,21.44,74300.0,24.91,-14.69,-14.65,0,*7C
1498133280.98,6721,21.44,74300.8,24.93,-15.63,-15.67,0,*77
1498133282.2,6722,21.44,74294.8,24.93,-15.81,-15.95,0,*75
1498133283.43,6723,21.44,74298.8,24.93,-14.75,-14.61,0,*74
1498133284.67,6724,21.44,74298.5,24.97,-14.75,-14.55,0,*70
1498133285.87,6725,21.44,74298.5,24.97,-15.49,-15.29,0,*75
1498133287.1,6726,21.44,74296.3,24.97,-15.43,-15.15,0,*73
1498133288.3,6727,21.44,74296.8,25.01,-15.25,-14.89,0,*78
1498133289.54,6728,21.44,74298.5,24.99,-15.63,-15.21,0,*76
1498133290.76,6729,21.44,74300.8,24.99,-15.49,-15.15,0,*78
1498133291.96,6730,21.44,74298.8,25.01,-15.71,-15.25,0,*78
1498133293.15,6731,21.44,74296.8,25.01,-16.89,-16.45,0,*78
1498133294.41,6732,21.44,74296.0,25.01,-15.85,-15.39,0,*7C
1498133295.6,6733,21.44,74296.8,25.05,-15.11,-14.61,0,*78
1498133296.85,6734,21.44,74296.3,25.05,-14.93,-14.47,0,*70
1498133298.05,6735,21.44,74298.3,25.05,-14.61,-14.23,0,*7E
1498133299.29,6736,21.44,74296.0,25.07,-14.79,-14.15,0,*73
1498133300.5,6737,21.44,74298.8,25.11,-14.65,-14.11,0,*7C
1498133301.73,6738,21.44,74294.3,25.13,-15.25,-14.83,0,*7F